TimeCDT,TemperatureF,Dew PointF,Humidity,Sea Level PressureIn,VisibilityMPH,Wind Direction,Wind SpeedMPH,Gust SpeedMPH,PrecipitationIn,Events,Conditions,WindDirDegrees,DateUTC
12:53 AM,73.9,69.1,85,29.88,10.0,SSE,5.8,-,N/A,,Scattered Clouds,160,2013-05-20 05:53:00
1:01 AM,73.4,69.8,88,29.89,10.0,SSE,9.2,-,N/A,,Mostly Cloudy,150,2013-05-20 06:01:00
1:15 AM,75.2,69.8,83,29.88,10.0,SSE,10.4,-,N/A,,Overcast,160,2013-05-20 06:15:00
1:53 AM,73.9,69.1,85,29.87,10.0,SSE,6.9,-,N/A,,Overcast,160,2013-05-20 06:53:00
2:53 AM,75.0,70.0,84,29.87,10.0,South,5.8,-,N/A,,Overcast,180,2013-05-20 07:53:00
3:53 AM,73.9,70.0,87,29.86,10.0,South,6.9,-,N/A,,Mostly Cloudy,170,2013-05-20 08:53:00
4:29 AM,73.4,69.8,88,29.87,10.0,SSE,6.9,-,N/A,,Mostly Cloudy,150,2013-05-20 09:29:00
4:45 AM,73.4,69.8,88,29.88,10.0,South,5.8,-,N/A,,Scattered Clouds,180,2013-05-20 09:45:00
4:53 AM,73.0,70.0,90,29.87,10.0,SSE,5.8,-,N/A,,Mostly Cloudy,160,2013-05-20 09:53:00
5:53 AM,71.6,69.8,94,29.90,10.0,SE,5.8,-,N/A,,Clear,140,2013-05-20 10:53:00
6:50 AM,73.4,71.6,94,29.92,8.0,SE,6.9,-,N/A,,Mostly Cloudy,140,2013-05-20 11:50:00
6:53 AM,73.4,71.6,94,29.92,8.0,SE,5.8,-,N/A,,Mostly Cloudy,140,2013-05-20 11:53:00
7:11 AM,73.4,71.6,94,29.92,8.0,SE,6.9,-,N/A,,Scattered Clouds,140,2013-05-20 12:11:00
7:53 AM,75.0,71.1,87,29.91,10.0,SSE,10.4,-,N/A,,Partly Cloudy,160,2013-05-20 12:53:00
8:22 AM,75.2,71.6,89,29.93,10.0,SSE,11.5,18.4,N/A,,Mostly Cloudy,160,2013-05-20 13:22:00
8:53 AM,78.1,71.1,79,29.92,10.0,SSE,12.7,18.4,N/A,,Overcast,160,2013-05-20 13:53:00
9:53 AM,79.0,71.1,77,29.92,10.0,South,13.8,25.3,N/A,,Overcast,170,2013-05-20 14:53:00
10:53 AM,82.9,71.1,67,29.92,10.0,South,15.0,21.9,N/A,,Mostly Cloudy,180,2013-05-20 15:53:00
11:53 AM,84.0,72.0,67,29.91,10.0,South,12.7,21.9,N/A,,Mostly Cloudy,190,2013-05-20 16:53:00
12:53 PM,84.9,71.1,63,29.90,10.0,South,17.3,-,N/A,,Mostly Cloudy,180,2013-05-20 17:53:00
1:53 PM,86.0,71.1,61,29.88,10.0,South,15.0,20.7,N/A,,Mostly Cloudy,190,2013-05-20 18:53:00
2:53 PM,87.1,72.0,61,29.86,10.0,South,17.3,23.0,N/A,,Partly Cloudy,190,2013-05-20 19:53:00
3:53 PM,87.1,71.1,59,29.84,10.0,South,15.0,23.0,N/A,,Clear,190,2013-05-20 20:53:00
4:53 PM,88.0,71.1,57,29.81,10.0,South,10.4,-,N/A,,Partly Cloudy,180,2013-05-20 21:53:00
5:53 PM,87.1,71.1,59,29.79,10.0,SSE,15.0,18.4,N/A,,Clear,150,2013-05-20 22:53:00
6:53 PM,86.0,71.1,61,29.79,10.0,SSE,10.4,-,N/A,,Scattered Clouds,160,2013-05-20 23:53:00
7:53 PM,82.0,70.0,67,29.80,10.0,SSE,5.8,-,N/A,,Partly Cloudy,160,2013-05-21 00:53:00
8:53 PM,80.6,69.8,70,29.82,10.0,South,6.9,-,N/A,,Clear,180,2013-05-21 01:53:00
9:53 PM,80.1,71.1,74,29.84,10.0,SSE,6.9,-,N/A,,Clear,160,2013-05-21 02:53:00
10:53 PM,79.0,70.0,74,29.85,10.0,SSE,9.2,-,N/A,,Clear,160,2013-05-21 03:53:00
11:53 PM,77.0,70.0,79,29.86,10.0,South,5.8,-,N/A,,Clear,170,2013-05-21 04:53:00